When you browse on this site, cookies collect data to enhance your experience and personalize the content and advertising you see.
Visit our Privacy Policy to learn more. By continuing to use the site, you agree to this use of cookies and data.
  • In Hungary
  • List of Countries
  • For 7 days
  • Water Temperature
  • Satellite Maps
  • Weather Map
  • News
  • Weather Widgets
  • user-avatar
    Login

    Hourly Weather Kurykyumal

    Today, 22 November, Thursday

    Time Temperature Precipitation Wind Pressure Humidity
    00:00 -8°C° 0 mm 4 mps 743 mmHg 81%
    01:00 -8°C° 0 mm 4 mps 742 mmHg 84%
    02:00 -9°C° 0 mm 4 mps 742 mmHg 86%
    03:00 -8°C° 0 mm 3 mps 742 mmHg 90%
    04:00 -9°C° 0 mm 4 mps 741 mmHg 90%
    05:00 -9°C° 0 mm 4 mps 741 mmHg 90%
    06:00 -9°C° 0 mm 4 mps 740 mmHg 90%
    07:00 -8°C° 0.1 mm 5 mps 739 mmHg 88%
    08:00 -8°C° 0.1 mm 5 mps 738 mmHg 86%
    09:00 -8°C° 0.1 mm 6 mps 738 mmHg 83%
    10:00 -8°C° 0.3 mm 6 mps 737 mmHg 83%
    11:00 -8°C° 0.3 mm 6 mps 736 mmHg 82%
    12:00 -8°C° 0.3 mm 7 mps 735 mmHg 82%
    13:00 -6°C° 0.5 mm 6 mps 734 mmHg 84%
    14:00 -6°C° 0.5 mm 6 mps 733 mmHg 86%
    15:00 -6°C° 0.5 mm 6 mps 733 mmHg 88%
    16:00 -6°C° 0.3 mm 6 mps 732 mmHg 87%
    17:00 -5°C° 0.3 mm 5 mps 732 mmHg 87%
    18:00 -5°C° 0.3 mm 5 mps 732 mmHg 87%
    19:00 -5°C° 0.1 mm 4 mps 732 mmHg 87%
    20:00 -6°C° 0.1 mm 3 mps 732 mmHg 88%
    21:00 -6°C° 0.1 mm 2 mps 732 mmHg 88%
    22:00 -6°C° 0 mm 2 mps 732 mmHg 90%
    23:00 -6°C° 0 mm 2 mps 732 mmHg 91%

    Tomorrow, 23 November, Friday

    Time Temperature Precipitation Wind Pressure Humidity
    00:00 -7°C° 0 mm 2 mps 732 mmHg 93%
    01:00 -7°C° 0.2 mm 2 mps 732 mmHg 92%
    02:00 -7°C° 0.2 mm 3 mps 733 mmHg 90%
    03:00 -8°C° 0.2 mm 4 mps 734 mmHg 89%
    04:00 -9°C° 0.2 mm 4 mps 735 mmHg 86%
    05:00 -10°C° 0.2 mm 5 mps 735 mmHg 84%
    06:00 -10°C° 0.2 mm 6 mps 736 mmHg 81%
    07:00 -11°C° 0 mm 5 mps 738 mmHg 81%
    08:00 -11°C° 0 mm 5 mps 739 mmHg 82%
    09:00 -11°C° 0 mm 4 mps 740 mmHg 82%
    10:00 -11°C° 0 mm 5 mps 741 mmHg 81%
    11:00 -10°C° 0 mm 5 mps 741 mmHg 79%
    12:00 -10°C° 0 mm 5 mps 742 mmHg 78%
    13:00 -10°C° 0.1 mm 5 mps 743 mmHg 77%
    14:00 -10°C° 0.1 mm 5 mps 743 mmHg 77%
    15:00 -11°C° 0.1 mm 5 mps 744 mmHg 76%
    16:00 -11°C° 0 mm 5 mps 744 mmHg 78%
    17:00 -10°C° 0 mm 4 mps 745 mmHg 79%
    18:00 -11°C° 0 mm 4 mps 746 mmHg 81%
    19:00 -11°C° 0 mm 4 mps 746 mmHg 83%
    20:00 -11°C° 0 mm 4 mps 746 mmHg 85%
    21:00 -12°C° 0 mm 3 mps 746 mmHg 87%
    22:00 -10°C° 0.1 mm 3 mps 746 mmHg 87%
    23:00 -10°C° 0.1 mm 3 mps 746 mmHg 88%

    Day after tomorrow, 24 November, Saturday

    Time Temperature Precipitation Wind Pressure Humidity
    00:00 -10°C° 0.1 mm 4 mps 746 mmHg 88%
    01:00 -10°C° 0 mm 4 mps 746 mmHg 89%
    02:00 -10°C° 0 mm 4 mps 746 mmHg 90%
    03:00 -9°C° 0 mm 4 mps 745 mmHg 91%
    04:00 -9°C° 0 mm 4 mps 745 mmHg 90%
    05:00 -9°C° 0 mm 4 mps 745 mmHg 90%
    06:00 -10°C° 0 mm 5 mps 744 mmHg 89%
    07:00 -10°C° 0 mm 5 mps 744 mmHg 88%
    08:00 -10°C° 0 mm 5 mps 743 mmHg 87%
    09:00 -10°C° 0 mm 5 mps 743 mmHg 86%
    10:00 -9°C° 0.1 mm 6 mps 742 mmHg 85%
    11:00 -9°C° 0.1 mm 6 mps 742 mmHg 83%
    12:00 -8°C° 0.1 mm 7 mps 742 mmHg 82%
    13:00 -8°C° 0.1 mm 6 mps 741 mmHg 81%
    14:00 -6°C° 0.1 mm 6 mps 741 mmHg 81%
    15:00 -6°C° 0.1 mm 6 mps 741 mmHg 81%
    16:00 -5°C° 0 mm 6 mps 741 mmHg 82%
    17:00 -5°C° 0 mm 6 mps 741 mmHg 83%
    18:00 -5°C° 0 mm 6 mps 741 mmHg 84%
    19:00 -5°C° 0 mm 6 mps 741 mmHg 84%
    20:00 -5°C° 0 mm 5 mps 741 mmHg 85%
    21:00 -6°C° 0 mm 5 mps 741 mmHg 85%
    22:00 -6°C° 0 mm 5 mps 741 mmHg 86%
    23:00 -6°C° 0 mm 5 mps 741 mmHg 87%

    25 November, Sunday

    Time Temperature Precipitation Wind Pressure Humidity
    00:00 -6°C° 0 mm 5 mps 741 mmHg 87%
    01:00 -6°C° 0.2 mm 5 mps 740 mmHg 88%
    02:00 -6°C° 0.2 mm 5 mps 740 mmHg 89%
    03:00 -6°C° 0.2 mm 5 mps 740 mmHg 89%
    04:00 -6°C° 0.2 mm 5 mps 740 mmHg 89%
    05:00 -6°C° 0.2 mm 5 mps 740 mmHg 89%
    06:00 -6°C° 0.2 mm 5 mps 739 mmHg 89%
    07:00 -6°C° 0.1 mm 5 mps 740 mmHg 88%
    08:00 -6°C° 0.1 mm 5 mps 740 mmHg 87%
    09:00 -6°C° 0.1 mm 5 mps 740 mmHg 87%
    10:00 -5°C° 0.1 mm 5 mps 740 mmHg 85%
    11:00 -5°C° 0.1 mm 5 mps 741 mmHg 83%
    12:00 -5°C° 0.1 mm 5 mps 741 mmHg 81%
    13:00 -4°C° 0 mm 4 mps 742 mmHg 82%
    14:00 -4°C° 0 mm 4 mps 742 mmHg 83%
    15:00 -4°C° 0 mm 3 mps 742 mmHg 84%
    16:00 -5°C° 0 mm 3 mps 743 mmHg 86%
    17:00 -4°C° 0 mm 2 mps 743 mmHg 88%
    18:00 -5°C° 0 mm 2 mps 743 mmHg 90%
    19:00 -5°C° 0 mm 2 mps 743 mmHg 91%
    20:00 -3°C° 0 mm 1 mps 744 mmHg 91%
    21:00 -3°C° 0 mm 1 mps 744 mmHg 92%
    22:00 -3°C° 0 mm 1 mps 744 mmHg 92%
    23:00 -3°C° 0 mm 1 mps 744 mmHg 92%

    26 November, Monday

    Time Temperature Precipitation Wind Pressure Humidity
    00:00 -3°C° 0 mm 1 mps 744 mmHg 92%
    01:00 -3°C° 0 mm 1 mps 744 mmHg 93%
    02:00 -3°C° 0 mm 1 mps 744 mmHg 93%
    03:00 -5°C° 0 mm 2 mps 744 mmHg 93%
    04:00 -5°C° 0 mm 2 mps 744 mmHg 93%
    05:00 -6°C° 0 mm 2 mps 744 mmHg 93%
    06:00 -6°C° 0 mm 2 mps 743 mmHg 93%
    07:00 -6°C° 0 mm 2 mps 743 mmHg 93%
    08:00 -6°C° 0 mm 2 mps 743 mmHg 92%
    09:00 -6°C° 0 mm 2 mps 743 mmHg 91%
    10:00 -5°C° 0 mm 2 mps 743 mmHg 90%
    11:00 -5°C° 0 mm 2 mps 743 mmHg 89%
    12:00 -4°C° 0 mm 2 mps 743 mmHg 87%
    13:00 -5°C° 0 mm 2 mps 743 mmHg 88%
    14:00 -3°C° 0 mm 1 mps 743 mmHg 90%
    15:00 -4°C° 0 mm 1 mps 742 mmHg 91%
    16:00 -4°C° 0 mm 1 mps 742 mmHg 92%
    17:00 -6°C° 0 mm 1 mps 742 mmHg 92%
    18:00 -6°C° 0 mm 1 mps 742 mmHg 93%
    19:00 -6°C° 0.1 mm 1 mps 742 mmHg 93%
    20:00 -6°C° 0.1 mm 1 mps 742 mmHg 92%
    21:00 -7°C° 0.1 mm 2 mps 741 mmHg 92%
    22:00 -6°C° 0.2 mm 1 mps 741 mmHg 93%
    23:00 -6°C° 0.2 mm 1 mps 741 mmHg 93%

    27 November, Tuesday

    Time Temperature Precipitation Wind Pressure Humidity
    00:00 -6°C° 0.2 mm 1 mps 741 mmHg 94%
    01:00 -6°C° 0.1 mm 1 mps 741 mmHg 95%
    02:00 -6°C° 0.1 mm 1 mps 741 mmHg 95%
    03:00 -6°C° 0.1 mm 1 mps 741 mmHg 96%
    04:00 -6°C° 0.1 mm 1 mps 741 mmHg 96%
    05:00 -6°C° 0.1 mm 1 mps 742 mmHg 97%
    06:00 -6°C° 0.1 mm 1 mps 742 mmHg 97%
    07:00 -6°C° 0.1 mm 1 mps 742 mmHg 97%
    08:00 -6°C° 0.1 mm 1 mps 743 mmHg 96%
    09:00 -6°C° 0.1 mm 1 mps 743 mmHg 96%
    10:00 -7°C° 0 mm 2 mps 743 mmHg 94%
    11:00 -7°C° 0 mm 2 mps 744 mmHg 93%
    12:00 -7°C° 0 mm 2 mps 744 mmHg 91%
    13:00 -7°C° 0 mm 2 mps 745 mmHg 92%
    14:00 -7°C° 0 mm 1 mps 745 mmHg 93%
    15:00 -7°C° 0 mm 1 mps 746 mmHg 93%
    16:00 -8°C° 0 mm 1 mps 746 mmHg 94%
    17:00 -8°C° 0 mm 1 mps 747 mmHg 95%
    18:00 -9°C° 0 mm 1 mps 747 mmHg 95%
    19:00 -9°C° 0 mm 1 mps 748 mmHg 95%
    20:00 -9°C° 0 mm 1 mps 748 mmHg 95%
    21:00 -10°C° 0 mm 1 mps 748 mmHg 95%
    22:00 -10°C° 0 mm 1 mps 749 mmHg 95%
    23:00 -10°C° 0 mm 1 mps 749 mmHg 95%
    Show more